Emporia, VA

3:58 PM EST on December 09, 2019 (GMT -0500)
Emporia-Greensville Regional

Weather History for KEMV - October, 2019

Change the Weather History Date:

Sunday, October 27, 2019

  Actual Average Record
Temperature  
Mean Temperature 69 °F -  
Max Temperature 80 °F 68 °F 86 °F (2010)
Min Temperature 57 °F 43 °F 28 °F (1988)
Cooling Degree Days 4    
Growing Degree Days 19 (Base 50)    
Moisture  
Dew Point 67 °F    
Average Humidity 92    
Maximum Humidity 100    
Minimum Humidity 68    
Precipitation  
Precipitation 0.21 in - - ()
Sea Level Pressure  
Sea Level Pressure 29.91 in    
Wind  
Wind Speed 5 mph (SE)    
Max Wind Speed 12 mph    
Max Gust Speed 18 mph    
Visibility 8 miles    
Events      
Averages and records for this station are not official NWS values.
T = Trace of Precipitation, MM = Missing Value Source: NWS Daily Summary

Daily Weather History Graph

Daily Weather History Graph

Search for Another Location

Airport or City:

Astronomy

Oct. 27, 2019 Rise Set
Actual Time 7:28 AM EDT 6:18 PM EDT
Civil Twilight 7:01 AM EDT 6:45 PM EDT
Nautical Twilight 6:31 AM EDT 7:15 PM EDT
Astronomical Twilight 6:01 AM EDT 7:45 PM EDT
Moon 6:37 AM EDT (10/27) 6:25 PM EDT (10/27)
Length of Visible Light 11h 43m
Length of Day
10h 50m
Waning Crescent, 0% of the Moon is Illuminated
Oct 27
Waning Crescent
Oct 27
New
Nov 4
First Quarter
Nov 12
Full
Nov 19
Last Quarter

Hourly Weather History & Observations

Time (EDT) Temp. Heat Index Dew Point Humidity Pressure Visibility Wind Dir Wind Speed Gust Speed Precip Events Conditions
12:15 AM 64.9 °F - 61.3 °F 88% 30.06 in 10.0 mi East 4.6 mph - N/A   Scattered Clouds
12:35 AM 64.8 °F - 61.5 °F 89% 30.05 in 10.0 mi East 3.5 mph - N/A   Scattered Clouds
12:55 AM 64.8 °F - 61.7 °F 90% 30.04 in 10.0 mi East 5.8 mph - N/A   Mostly Cloudy
1:15 AM 64.8 °F - 61.7 °F 90% 30.04 in 10.0 mi East 5.8 mph - N/A   Overcast
1:55 AM 65.3 °F - 62.2 °F 90% 30.02 in 10.0 mi East 4.6 mph - N/A   Overcast
2:15 AM 64.9 °F - 62.1 °F 90% 30.01 in 10.0 mi East 4.6 mph - N/A   Overcast
2:35 AM 64.6 °F - 62.6 °F 93% 30.00 in 10.0 mi East 5.8 mph - N/A   Mostly Cloudy
2:55 AM 64.6 °F - 63.0 °F 94% 29.99 in 10.0 mi East 4.6 mph - N/A   Mostly Cloudy
3:15 AM 64.6 °F - 63.1 °F 95% 29.98 in 10.0 mi East 5.8 mph - N/A   Overcast
3:35 AM 64.8 °F - 63.5 °F 96% 29.97 in 10.0 mi East 6.9 mph - N/A   Overcast
3:55 AM 65.3 °F - 64.0 °F 96% 29.95 in 10.0 mi East 9.2 mph - N/A   Overcast
4:35 AM 65.5 °F - 64.8 °F 98% 29.93 in 10.0 mi ESE 8.1 mph - N/A   Overcast
4:55 AM 65.8 °F - 65.3 °F 98% 29.92 in 10.0 mi East 5.8 mph - N/A   Overcast
5:15 AM 66.4 °F - 66.0 °F 99% 29.92 in 10.0 mi ESE 5.8 mph - N/A   Overcast
5:35 AM 66.7 °F - 66.4 °F 99% 29.91 in 10.0 mi ESE 6.9 mph - N/A   Overcast
5:55 AM 67.5 °F - 67.1 °F 99% 29.90 in 10.0 mi ESE 5.8 mph - N/A   Overcast
6:15 AM 69.3 °F - 68.5 °F 98% 29.90 in 10.0 mi ESE 10.4 mph - N/A   Overcast
6:35 AM 69.8 °F - 68.7 °F 96% 29.89 in 4.0 mi ESE 11.5 mph - N/A   Overcast
6:55 AM 69.8 °F - 69.1 °F 98% 29.89 in 10.0 mi SE 9.2 mph - 0.01 in   Overcast
7:15 AM 69.8 °F - 69.3 °F 98% 29.88 in 10.0 mi ESE 8.1 mph - N/A   Overcast
7:55 AM 71.1 °F - 70.2 °F 97% 29.87 in 10.0 mi SSE 10.4 mph - N/A   Overcast
8:15 AM 71.6 °F - 70.3 °F 96% 29.87 in 10.0 mi SE 9.2 mph 17.3 mph N/A   Overcast
8:35 AM 72.5 °F - 70.7 °F 94% 29.87 in 10.0 mi SSE 9.2 mph - N/A   Overcast
8:55 AM 72.9 °F - 70.9 °F 93% 29.87 in - SE 9.2 mph - N/A   Overcast
9:15 AM 73.6 °F - 71.1 °F 92% 29.87 in 10.0 mi SE 9.2 mph 17.3 mph N/A   Overcast
9:35 AM 74.3 °F - 71.2 °F 90% 29.86 in 10.0 mi SE 9.2 mph 18.4 mph N/A   Overcast
9:55 AM 73.4 °F - 71.8 °F 95% 29.87 in 3.0 mi SSE 8.1 mph 16.1 mph N/A   Overcast
10:15 AM 73.4 °F - 72.1 °F 96% 29.87 in 4.0 mi South 6.9 mph - 0.01 in   Overcast
10:35 AM 73.6 °F - 72.5 °F 96% 29.87 in 7.0 mi SSE 10.4 mph 16.1 mph 0.01 in   Overcast
10:55 AM 74.8 °F - 73.6 °F 96% 29.86 in - SSE 8.1 mph - 0.01 in   Overcast
11:35 AM 75.6 °F - 72.7 °F 91% 29.86 in 10.0 mi South 11.5 mph - N/A   Overcast
11:55 AM 74.8 °F - 73.2 °F 95% 29.87 in 7.0 mi South 10.4 mph - N/A   Overcast
12:15 PM 76.3 °F - 73.6 °F 91% 29.87 in 10.0 mi South 6.9 mph - N/A   Overcast
12:55 PM 70.7 °F - 69.6 °F 96% 29.88 in - SSW 3.5 mph - 0.19 in   Unknown
1:15 PM 72.1 °F - 71.6 °F 98% 29.87 in - South 3.5 mph - N/A   Unknown
1:35 PM 73.9 °F - 71.6 °F 92% 29.86 in - SW 5.8 mph - N/A   Unknown
1:55 PM 74.7 °F - 71.4 °F 90% 29.85 in 10.0 mi South 4.6 mph - N/A   Mostly Cloudy
2:15 PM 77.0 °F - 71.4 °F 83% 29.84 in 10.0 mi SSW 6.9 mph - N/A   Scattered Clouds
2:35 PM 78.8 °F - 71.1 °F 77% 29.84 in 10.0 mi South 4.6 mph - N/A   Scattered Clouds
2:55 PM 79.2 °F - 70.3 °F 74% 29.84 in 10.0 mi SSW 9.2 mph - N/A   Mostly Cloudy
3:35 PM 80.1 °F 83.2 °F 70.0 °F 71% 29.85 in - South 4.6 mph - N/A   Mostly Cloudy
3:55 PM 80.4 °F 83.9 °F 70.5 °F 72% 29.85 in - West 5.8 mph - N/A   Mostly Cloudy
4:15 PM 79.3 °F - 70.0 °F 73% 29.86 in - WSW 4.6 mph - N/A   Overcast
4:35 PM 78.6 °F - 68.9 °F 72% 29.86 in - West 4.6 mph - N/A   Overcast
4:55 PM 79.0 °F - 68.9 °F 71% 29.86 in - West 3.5 mph - N/A   Mostly Cloudy
5:15 PM 79.7 °F - 68.4 °F 68% 29.86 in - South 4.6 mph - N/A   Scattered Clouds
5:35 PM 79.0 °F - 68.4 °F 70% 29.87 in 10.0 mi SSW 4.6 mph - N/A   Clear
5:55 PM 77.9 °F - 68.5 °F 73% 29.88 in 10.0 mi Calm Calm - N/A   Clear
6:15 PM 74.7 °F - 69.3 °F 83% 29.89 in 10.0 mi Calm Calm - N/A   Clear
6:35 PM 71.4 °F - 69.6 °F 94% 29.89 in 10.0 mi Calm Calm - N/A   Clear
6:55 PM 69.4 °F - 68.9 °F 98% 29.89 in 10.0 mi Calm Calm - N/A   Clear
7:35 PM 67.5 °F - 67.5 °F 100% 29.92 in 1.2 mi Calm Calm - N/A   Unknown
7:55 PM 66.7 °F - 66.7 °F 100% 29.92 in 2.5 mi West 4.6 mph - N/A   Clear
8:15 PM 67.1 °F - 65.1 °F 93% 29.93 in 10.0 mi Calm Calm - N/A   Clear
8:35 PM 65.5 °F - 64.8 °F 98% 29.94 in 7.0 mi Calm Calm - N/A   Clear
8:55 PM 63.1 °F - 63.0 °F 99% 29.94 in 1.0 mi Calm Calm - N/A   Unknown
9:15 PM 62.6 °F - 62.6 °F 100% 29.94 in 1.8 mi Calm Calm - N/A   Unknown
9:35 PM 61.3 °F - 61.3 °F 100% 29.95 in 0.2 mi Calm Calm - N/A   Unknown
9:55 PM 60.6 °F - 60.6 °F 100% 29.96 in 1.2 mi Calm Calm - N/A   Unknown
10:15 PM 59.0 °F - 59.0 °F 100% 29.97 in 0.2 mi Calm Calm - N/A   Unknown
10:35 PM 59.7 °F - 59.7 °F 100% 29.98 in - Calm Calm - N/A   Unknown
10:55 PM 59.5 °F - 59.5 °F 100% 29.98 in - Calm Calm - N/A   Unknown
11:35 PM 58.5 °F - 58.5 °F 100% 29.99 in - Calm Calm - N/A   Unknown
11:55 PM 57.7 °F - 57.4 °F 99% 29.99 in - Calm Calm - N/A   Unknown